Regional Weather Roundup
Issued by NWS Wakefield, VA

Home | Current Version | Previous Version | Text Only | Print | Product List | Glossary On
Versions: 1 2 3 4 5 6 7 8 9 10 11 12 13 14 15 16 17 18 19 20 21 22 23 24 25 26 27 28 29 30 31 32 33 34 35 36 37 38 39 40 41 42 43 44 45 46 47 48 49 50
000
ASUS41 KAKQ 190014
RWRAKQ

REGIONAL WEATHER ROUNDUP
NATIONAL WEATHER SERVICE WAKEFIELD VA
800 PM EDT TUE MAY 18 2021

Note: "fair" indicates few or no clouds below 12,000 feet with no
significant weather and/or obstructions to visibility. * = Denotes
station may not report precipitation (e.g., rain,snow,etc.),
thunder or fog.

VAZ042-051-052>054-056-190100-
NORTHERN VIRGINIA

CITY           SKY/WX    TMP DP  RH WIND       PRES   REMARKS
WASH NATIONAL  PTCLDY    73  48  41 S9        30.29S
DULLES         PTCLDY    73  49  42 S6        30.29R
FORT BELVOIR   NOT AVBL
QUANTICO       CLEAR     72  54  53 SE7       30.30S
FREDERICKSBRG* CLEAR     73  49  41 S3        30.29R
STAFFORD*      NOT AVBL
WARRENTON      CLEAR     71  52  52 CALM      30.29S
CULPEPER*      CLEAR     74  49  41 CALM      30.30S
MANASSAS*      CLEAR     70  52  52 S6        30.30R
LEESBURG*      CLEAR     75  50  41 CALM      30.31R
WINCHESTER     CLEAR     68  50  52 SE6       30.28S
FRONT ROYAL*   FAIR      72  54  53 CALM      30.29R
LURAY*         FAIR      70  54  56 CALM      30.30S
$$

VAZ048-049-060>072-079>083-190100-
CENTRAL AND SOUTH CENTRAL VIRGINIA

CITY           SKY/WX    TMP DP  RH WIND       PRES   REMARKS
RICHMOND       PTCLDY    69  48  47 SE7       30.30S
CHESTERFIELD*  NOT AVBL
PETERSBURG*    PTCLDY    65  53  63 CALM      30.31S
HANOVER        CLEAR     68  53  58 CALM      30.31S
TAPPAHANNOCK*  CLEAR     68  46  45 SE3       30.32S
QUINTON*       FAIR      70  47  43 SE3       30.31S
CHARLOTTSVILLE CLEAR     70  54  56 S6        30.30S
GORDONSVILLE*  FAIR      69  56  62 CALM      30.30S
ORANGE*        CLEAR     70  54  56 CALM      30.30S
LOUISA*        CLEAR     66  55  66 CALM      30.35S
BUMPASS*       FAIR      67  48  51 CALM      30.30S
FARMVILLE*     MOCLDY    66  57  71 CALM      30.31S
CREWE*         FAIR      66  51  57 CALM      30.31S
FORT PICKETT*  FAIR      70  50  49 CALM      30.31S
CHASE CITY*    FAIR      67  59  74 CALM      30.32S
CLARKSVILLE*   FAIR      70  55  60 CALM      30.31S
SOUTH HILL*    MOCLDY    66  56  69 CALM      30.37S
LAWRENCEVILLE* FAIR      69  49  48 CALM      30.32S
EMPORIA*       MOCLDY    69  50  49 CALM      30.33S
$$

VAZ088>098-190100-
SOUTHEAST VIRGINIA

CITY           SKY/WX    TMP DP  RH WIND       PRES   REMARKS
NORFOLK        CLEAR     67  49  52 SE5       30.33S
VIRGINIA BEACH PTCLDY    65  52  62 SE6       30.33S
NORFOLK NAVAL  PTCLDY    66  48  52 SE6       30.34S
WEST POINT*    CLEAR     67  48  50 SE5       30.32S
SALUDA*        FAIR      66  52  60 S3        30.32S
NEWPORT NEWS   CLEAR     65  45  48 SE9       30.33S
LANGLEY AFB    NOT AVBL
FORT EUSTIS    NOT AVBL
WILLIAMSBURG*  CLEAR     68  48  49 CALM      30.33S
HR EXEC AP*    FAIR      62  50  64 SE5       30.34S
FRANKLIN*      PTCLDY    67  40  36 E5        30.33S
US460-WAKEFLD  PTCLDY    69  43  38 E5        30.32S
$$

VAZ020-022-025-037-045-190100-
WEST CENTRAL AND SOUTHWEST VIRGINIA

CITY           SKY/WX    TMP DP  RH WIND       PRES   REMARKS
STAUNTON*      CLEAR     68  55  61 S6        30.34R
WAYNESBORO*    FAIR      67  55  66 CALM      30.33S
HOT SPRINGS VA PTCLDY    58  55  89 S6        30.40R
LYNCHBURG      MOCLDY    66  57  72 CALM      30.33S
DANVILLE       MOCLDY    67  59  75 CALM      30.32S
SOUTH BOSTON*  FAIR      67  57  70 CALM      30.32S
MARTINSVILLE   MOCLDY    66  59  80 CALM      30.36R
ROANOKE        MOCLDY    67  56  67 SE8       30.35R
BLACKSBURG     MOCLDY    66  59  79 SE3       30.39S
DUBLIN*        CLOUDY    63  60  91 SE3       30.36S
MARION*        CLOUDY    58  57  94 CALM      30.38S
HILLSVILLE*    CLOUDY    60  59  96 CALM      30.36S
RICHLANDS*     MOCLDY    63  53  70 SE6       30.34S
WISE*          MOCLDY    66  52  59 CALM      30.33S
ABINGDON*      MOCLDY    68  54  60 E12       30.30S
$$

MDZ021>025-VAZ099-100-190100-
SOUTHERN MARYLAND AND THE DELMARVA PENINSULA

CITY           SKY/WX    TMP DP  RH WIND       PRES   REMARKS
PATUXENT RIVER PTCLDY    70  45  40 S5        30.31S
BAY BRIDGE APT NOT AVBL
LEONARDTOWN    CLEAR     66  41  39 SE3       30.32F
DOVER          NOT AVBL
GEORGETOWN     CLEAR     71  48  43 S6        30.29S
EASTON         CLEAR     72  48  43 SW5       30.33F
CAMBRIDGE      CLEAR     70  43  37 CALM      30.31S
SALISBURY      CLEAR     68  47  46 SW7       30.30S
TANGIER        NOT AVBL
OCEAN CITY     CLEAR     65  52  62 S8        30.32F
WALLOPS ISLAND CLEAR     63  50  62 S7        30.33S
ACCOMACK*      CLEAR     65 -42   1 S6        30.33S
$$

NCZ012>017-030>032-190100-
NORTH CENTRAL AND EASTERN NORTH CAROLINA

CITY           SKY/WX    TMP DP  RH WIND       PRES   REMARKS
ROANOKE RAPIDS FAIR      63  57  82 CALM      30.31S
RALEIGH        CLOUDY    70  56  61 CALM      30.31S
ELIZABETH CITY PTCLDY    65  46  50 E8        30.34R
AHOSKIE*       MOCLDY    69  52  54 SE3       30.32S
EDENTON*       PTCLDY    67  58  72 E8        30.34S
CURRITUCK*     PTCLDY    64  49  57 E3        30.34R
KILL DEVIL HLS PTCLDY    62  57  86 CALM      30.33S
MANTEO         PTCLDY    63  59  87 CALM      30.35R
CAPE HATTERAS  MOCLDY    67  58  72 E3        30.33R
TARBORO*       FAIR      67  55  65 CALM      30.31S
GOLDSBORO      NOT AVBL
WASHINGTON     MOCLDY    70  54  56 E7        30.32S
GREENVILLE     MOCLDY    72  41  33 E5        30.32S
NEW BERN       MOCLDY    69  55  60 E10       30.33R
WILMINGTON     CLOUDY    71  59  65 E8        30.29S
$$

VAZ048-190100-
ELSEWHERE

CITY           SKY/WX    TMP DP  RH WIND       PRES   REMARKS
HARRISBURG PA  PTCLDY    75  50  41 SW8       30.25F
BALTIMORE      PTCLDY    73  48  41 S6        30.28S
ANNAPOLIS      CLEAR     69  50  50 S7        30.29F
ANDREWS AFB    NOT AVBL
PHILADELPHIA   CLEAR     75  46  35 SW12      30.25F
HENDERSON NC   MOCLDY    64  53  67 CALM      30.32S
GREENSBORO     CLOUDY    68  56  65 E8        30.31S
ROCKY MOUNT    MOCLDY    71  45  39 E3        30.30S
$$

VAZ100-190100-
MARINE

STATION/POSITION TIME  TEMP    WIND        PRES    WAVE   SWELL
                       AIR SEA DIR/SP/G            HT/PER HT/PER
                 (UTC) (F)     (DEG/KT/KT) (MB)    (FT/S) (FT/S)
CAPE MAY NJ      2330   64 64  160/ 11/ 14 1025.7F
LEWES DE         2330   69 62  180/  5/  9 1026.0F
15NM E FENWICK I 2350                        N/A     3/11
OCEAN-CITY-INLET 2330   64 65  210/  9/ 10 1027.5F
44089 WALLOPS IS 2356      62                N/A     3/11   2/11
WACHAPREAGUE VA  2330   66 76  180/  7/  9 1027.3S
THOMAS POINT MD  0000   68 64  150/ 13/ 14 1026.6S
GOOSES REEF MD   2348   66 67  180/ 10/ 14 1026.4F   1
COVE POINT MD    2330   69     140/  9/ 10 1026.0F
SOLOMONS ISLAND  2330   71 68  180/  8/  8 1026.0F
BISHOPS HEAD MD  2330   70 75  210/ 11/ 12 1026.2S
PINEY POINT MD   2330          160/  8/  9   N/A
CAMBRIDGE MD     2330   73 71  200/  6/  9 1026.1S
LEWISETTA VA     2330   71 66  170/  5/  5 1026.5F
RAPPAHANNOCK LGT 2330          140/  9/ 10 1027.7R
YORK RVR RNG VA  2330   66     160/ 10/ 11   N/A
YORKTOWN VA      2330   69 67  120/  7/  8 1026.7S
DOMINION TERM VA 2330   69     360/  1/  4 1027.3F
KIPTOPEKE VA     2330      66  140/  5/  7   N/A
CHES BAY BRIDGE  2330   66     130/  8/  9 1026.3F
CAPE HENRY VA    2330   65     120/  6/  7 1027.5F
WILLOUBY STN VA  2330   66     110/ 10/ 12 1026.5F
S CRANEY ISL VA  2330   70     130/  8/  9 1026.8S
CAPE HENRY BUOY  2356      65                N/A     3/11   2/11
64NM E OF VA BCH 2350      61   40/  6/  6 1027.2R   4/11   3/11
DUCK PIER NC     2330   63      60/  9/ 10 1027.2R
44100 DUCK FRF   2326      63                N/A     4/11   2/11
44056 DUCK FRF   2326      64                N/A     4/11   2/11
OREGON INLET NC  2330   64 68   10/  5/  6 1027.2R
HATTERAS NC      2330   68 71   80/  5/  8 1026.9R
CAPE LOOKOUT NC  0000   69      50/ 11/ 13 1026.7R
$$



USA.gov is the U.S. government's official web portal to all federal, state and local government web resources and services.